Latest Coastal Weather Observations for Kingfish B

IDV60701

Issued at 8:51 pm EST Wednesday 29 June 2016 (issued every 10 minutes, with the page automatically refreshed every 10 minutes)

About coastal observations | Map of coastal stations | Coastal observations for VIC | Marine services | Other Formats
Station Details ID: 400139 Name: KINGFISH B (PLATFORM) Lat: -38.60 Lon: 148.19 Height: 31.4 m
Data from the previous 72 hours. | See also: Recent months for locations in Victoria
Date/Time
EST
Temp
°C
Wind Pressure Rain since
9am
mm
Weather Cloud Vis
km
Sea
Height
m
Swell
Dir  Spd
kts
Gust
kts
hPa Trend Height
m
Period
s
Dir
29/07:40pm 14.4 NNE 5 7 1020.5 - - - - - - - - -
29/07:30pm 14.4 NNE 4 6 1020.8 - - - - - - - - -
29/07:20pm 14.5 NNE 4 5 1021.0 - - - - - - - - -
29/07:10pm 14.4 NNE 3 5 1021.1 - - - - - - - - -
29/07:00pm 14.4 NNE 3 4 1021.2 - - - - - - - - -
29/06:50pm 14.3 NNE 4 5 1021.4 - - - - - - - - -
29/06:40pm 14.0 NNE 1 2 1021.3 - - - - - - - - -
29/06:30pm 14.0 NNE 1 1 1021.3 - - - - - - - - -
29/06:20pm 14.0 NNE 1 3 1021.3 - - - - - - - - -
29/06:10pm 14.0 N 2 4 1021.5 - - - - - - - - -
29/06:00pm 14.0 N 3 4 1021.7 - - - - - - - - -
29/05:50pm 13.8 N 3 5 1021.7 - - - - - - - - -
29/05:40pm 13.7 N 2 4 1021.6 - - - - - - - - -
29/05:30pm 13.8 NNE 1 3 1021.8 - - - - - - - - -
29/05:20pm 13.8 CALM 0 2 1021.7 - - - - - - - - -
29/05:10pm 13.8 CALM 0 3 1021.9 - - - - - - - - -
29/05:00pm 14.0 CALM 0 2 1021.9 - - - - - - - - -
29/04:50pm 14.1 NNW 1 2 1022.0 - - - - - - - - -
29/04:40pm 14.4 NNW 1 3 1022.1 - - - - - - - - -
29/04:30pm 14.6 NW 1 2 1022.2 - - - - - - - - -
29/04:20pm 14.5 NNW 1 2 1022.2 - - - - - - - - -
29/04:10pm 15.0 N 1 3 1022.2 - - - - - - - - -
29/04:00pm 15.5 CALM 0 0 1022.3 - - - - - - - - -
29/03:50pm 15.5 CALM 0 0 1022.4 - - - - - - - - -
29/03:40pm 15.0 CALM 0 0 1022.5 - - - - - - - - -
29/03:30pm 14.6 CALM 0 1 1022.5 - - - - - - - - -
29/03:20pm 14.7 CALM 0 1 1022.5 - - - - - - - - -
29/03:10pm 15.1 CALM 0 1 1022.6 - - - - - - - - -
29/03:00pm 15.1 CALM 0 1 1022.7 - - - - - - - - -
29/02:50pm 15.2 CALM 0 2 1022.7 - - - - - - - - -
29/02:40pm 15.2 W 1 3 1022.6 - - - - - - - - -
29/02:30pm 15.2 W 2 2 1022.7 - - - - - - - - -
29/02:20pm 15.3 W 2 3 1022.8 - - - - - - - - -
29/02:00pm 14.9 W 3 6 1022.7 - - - - - - - - -
29/01:50pm 14.8 W 3 6 1022.7 - - - - - - - - -
29/01:40pm 15.0 WSW 3 6 1022.6 - - - - - - - - -
29/01:30pm 15.1 WSW 4 6 1022.5 - - - - - - - - -
29/01:20pm 15.2 WSW 5 7 1022.7 - - - - - - - - -
29/01:10pm 15.3 WSW 6 8 1022.7 - - - - - - - - -
29/01:00pm 15.2 W 7 9 1022.7 - - - - - - - - -
29/12:50pm 15.2 W 7 9 1022.7 - - - - - - - - -
29/12:40pm 15.1 W 8 11 1022.8 - - - - - - - - -
29/12:30pm 15.1 W 9 11 1022.9 - - - - - - - - -
29/12:20pm 15.0 W 9 11 1023.0 - - - - - - - - -
29/12:10pm 15.0 W 10 12 1023.0 - - - - - - - - -
29/12:00pm 15.0 W 10 12 1023.2 - - - - - - - - -
29/11:50am 14.9 W 10 12 1023.3 - - - - - - - - -
29/11:40am 15.0 W 9 12 1023.6 - - - - - - - - -
29/11:30am 15.0 W 9 11 1023.7 - - - - - - - - -
29/11:20am 15.0 W 9 12 1024.0 - - - - - - - - -
29/11:10am 15.0 W 11 14 1024.1 - - - - - - - - -
29/11:00am 15.2 W 12 14 1024.4 - - - - - - - - -
29/10:50am 15.2 W 11 14 1024.5 - - - - - - - - -
29/10:40am 15.2 W 11 14 1024.7 - - - - - - - - -
29/10:30am 15.5 W 11 14 1024.8 - - - - - - - - -
29/10:20am 15.5 W 10 14 1025.1 - - - - - - - - -
29/10:10am 15.4 W 11 15 1025.1 - - - - - - - - -
29/10:00am 15.6 W 11 13 1025.2 - - - - - - - - -
29/09:50am 15.4 W 10 13 1025.3 - - - - - - - - -
29/09:40am 15.3 W 11 14 1025.4 - - - - - - - - -
29/09:30am 15.4 W 11 14 1025.3 - - - - - - - - -
29/09:20am 15.4 W 11 13 1025.2 - - - - - - - - -
29/09:10am 15.4 W 11 14 1025.3 - - - - - - - - -
29/09:00am 15.6 W 12 15 1025.2 - - - - - - - - -
29/08:50am 15.2 W 13 17 1025.1 - - - - - - - - -
29/08:40am 15.3 W 12 14 1025.3 - - - - - - - - -
29/08:30am 15.3 W 11 14 1025.2 - - - - - - - - -
29/08:20am 15.3 W 11 14 1025.2 - - - - - - - - -
29/08:10am 15.3 W 12 14 1025.3 - - - - - - - - -
29/08:00am 15.2 W 11 14 1025.1 - - - - - - - - -
29/07:50am 14.9 W 12 14 1025.2 - - - - - - - - -
29/07:40am 14.8 W 12 15 1025.3 - - - - - - - - -
29/07:30am 14.7 W 12 14 1025.2 - - - - - - - - -
29/07:20am 14.5 W 12 15 1025.0 - - - - - - - - -
29/07:10am 14.4 W 13 16 1024.7 - - - - - - - - -
29/07:00am 14.4 W 13 16 1024.7 - - - - - - - - -
29/06:50am 14.4 W 12 15 1024.7 - - - - - - - - -
29/06:40am 14.4 W 11 15 1024.5 - - - - - - - - -
29/06:30am 14.3 W 11 14 1024.4 - - - - - - - - -
29/06:20am 14.3 W 11 13 1024.4 - - - - - - - - -
29/06:10am 14.4 W 11 15 1024.3 - - - - - - - - -
29/06:00am 14.4 W 12 15 1023.9 - - - - - - - - -
29/05:50am 14.3 W 12 15 1023.9 - - - - - - - - -
29/05:40am 14.4 W 12 15 1023.8 - - - - - - - - -
29/05:30am 14.3 W 11 15 1023.6 - - - - - - - - -
29/05:20am 14.2 W 13 16 1023.5 - - - - - - - - -
29/05:10am 14.2 W 14 17 1023.4 - - - - - - - - -
29/05:00am 14.2 W 13 16 1023.2 - - - - - - - - -
29/04:50am 14.2 W 14 17 1023.1 - - - - - - - - -
29/04:40am 14.3 W 14 17 1023.1 - - - - - - - - -
29/04:30am 14.3 W 14 17 1022.9 - - - - - - - - -
29/04:20am 14.4 W 13 17 1022.9 - - - - - - - - -
29/04:10am 14.3 W 14 18 1022.8 - - - - - - - - -
29/04:00am 14.3 W 16 18 1022.9 - - - - - - - - -
29/03:50am 14.3 W 16 19 1022.9 - - - - - - - - -
29/03:40am 14.3 W 14 18 1023.0 - - - - - - - - -
29/03:30am 14.3 W 14 17 1023.2 - - - - - - - - -
29/03:20am 14.3 W 14 17 1023.0 - - - - - - - - -
29/03:10am 14.3 W 15 18 1023.0 - - - - - - - - -
29/03:00am 14.3 W 14 17 1023.1 - - - - - - - - -
29/02:50am 14.3 W 13 17 1023.1 - - - - - - - - -
29/02:40am 14.2 W 14 17 1023.1 - - - - - - - - -
29/02:30am 14.2 W 14 18 1023.2 - - - - - - - - -
29/02:20am 14.2 W 13 16 1023.2 - - - - - - - - -
29/02:10am 14.2 W 14 17 1023.2 - - - - - - - - -
29/02:00am 14.2 W 14 17 1023.2 - - - - - - - - -
29/01:50am 14.2 W 12 17 1023.2 - - - - - - - - -
29/01:40am 14.2 W 13 16 1023.2 - - - - - - - - -
29/01:30am 14.2 W 12 15 1023.2 - - - - - - - - -
29/01:20am 14.1 W 14 17 1023.2 - - - - - - - - -
29/01:10am 14.2 W 13 16 1023.3 - - - - - - - - -
29/01:00am 14.2 W 14 17 1023.3 - - - - - - - - -
29/12:50am 14.2 W 14 16 1023.1 - - - - - - - - -
29/12:40am 14.2 W 14 17 1023.1 - - - - - - - - -
29/12:30am 14.3 W 13 15 1023.2 - - - - - - - - -
29/12:20am 14.3 W 13 15 1023.4 - - - - - - - - -
29/12:10am 14.3 W 13 15 1023.5 - - - - - - - - -
29/12:00am 14.3 W 13 16 1023.4 - - - - - - - - -
 
Date/Time
EST
Temp
°C
Wind Pressure Rain since
9am
mm
Weather Cloud Vis
km
Sea
Height
m
Swell
Dir  Spd
kts
Gust
kts
hPa Trend Height
m
Period
s
Dir
28/11:50pm 14.3 W 13 16 1023.4 - - - - - - - - -
28/11:40pm 14.3 W 14 16 1023.7 - - - - - - - - -
28/11:30pm 14.4 W 14 17 1023.6 - - - - - - - - -
28/11:20pm 14.4 W 13 16 1023.7 - - - - - - - - -
28/11:10pm 14.7 W 13 15 1023.7 - - - - - - - - -
28/10:50pm 14.7 W 14 17 1023.7 - - - - - - - - -
28/10:40pm 14.7 W 12 16 1023.6 - - - - - - - - -
28/10:30pm 14.7 W 12 16 1023.7 - - - - - - - - -
28/10:20pm 14.7 W 14 18 1023.5 - - - - - - - - -
28/10:10pm 14.8 W 14 18 1023.4 - - - - - - - - -
28/10:00pm 15.0 W 14 17 1023.5 - - - - - - - - -
28/09:50pm 14.9 WNW 13 15 1023.7 - - - - - - - - -
28/09:40pm 14.8 W 14 16 1023.6 - - - - - - - - -
28/09:30pm 14.7 W 15 17 1023.6 - - - - - - - - -
28/09:20pm 14.7 W 14 17 1023.6 - - - - - - - - -
28/09:10pm 14.7 W 14 16 1023.7 - - - - - - - - -
28/09:00pm 14.8 W 15 18 1023.6 - - - - - - - - -
28/08:50pm 14.7 W 16 19 1023.5 - - - - - - - - -
28/08:40pm 14.8 W 16 19 1023.4 - - - - - - - - -
28/08:30pm 14.8 W 15 18 1023.4 - - - - - - - - -
28/08:20pm 14.9 W 15 18 1023.5 - - - - - - - - -
28/08:10pm 14.9 W 15 18 1023.5 - - - - - - - - -
28/08:00pm 14.9 W 15 18 1023.4 - - - - - - - - -
28/07:50pm 14.9 W 13 16 1023.6 - - - - - - - - -
28/07:40pm 14.9 W 12 14 1023.3 - - - - - - - - -
28/07:30pm 14.9 W 12 15 1023.2 - - - - - - - - -
28/07:20pm 14.9 W 14 17 1023.2 - - - - - - - - -
28/07:10pm 15.0 W 15 17 1023.1 - - - - - - - - -
28/07:00pm 15.0 W 14 18 1023.1 - - - - - - - - -
28/06:50pm 15.0 W 14 16 1023.0 - - - - - - - - -
28/06:40pm 15.0 W 12 15 1023.0 - - - - - - - - -
28/06:30pm 15.0 W 12 14 1023.1 - - - - - - - - -
28/06:20pm 14.9 W 12 14 1023.0 - - - - - - - - -
28/06:10pm 14.9 W 13 15 1022.9 - - - - - - - - -
28/06:00pm 14.9 WSW 13 15 1022.8 - - - - - - - - -
28/05:50pm 14.9 WSW 12 14 1022.7 - - - - - - - - -
28/05:40pm 14.9 WSW 12 15 1022.6 - - - - - - - - -
28/05:30pm 15.1 WSW 10 14 1022.6 - - - - - - - - -
28/05:20pm 15.1 WSW 10 12 1022.6 - - - - - - - - -
28/05:10pm 15.1 WSW 11 13 1022.4 - - - - - - - - -
28/05:00pm 15.1 WSW 11 14 1022.3 - - - - - - - - -
28/04:50pm 15.1 WSW 11 14 1022.1 - - - - - - - - -
28/04:40pm 15.2 WSW 10 12 1022.0 - - - - - - - - -
28/04:30pm 16.5 WSW 11 14 1021.9 - - - - - - - - -
28/04:20pm 14.9 WSW 10 13 1021.8 - - - - - - - - -
28/04:10pm 15.0 WSW 10 13 1021.7 - - - - - - - - -
28/04:00pm 15.0 WSW 11 14 1021.6 - - - - - - - - -
28/03:50pm 15.1 W 11 14 1021.4 - - - - - - - - -
28/03:40pm 15.5 W 11 13 1021.4 - - - - - - - - -
28/03:30pm 16.9 W 12 15 1021.3 - - - - - - - - -
28/03:20pm 17.4 W 12 15 1021.3 - - - - - - - - -
28/03:10pm 17.5 W 12 14 1021.3 - - - - - - - - -
28/03:00pm 16.0 W 11 13 1021.2 - - - - - - - - -
28/02:50pm 15.1 W 13 16 1021.1 - - - - - - - - -
28/02:40pm 15.0 W 12 16 1021.0 - - - - - - - - -
28/02:30pm 15.2 W 13 15 1021.0 - - - - - - - - -
28/02:20pm 15.5 W 13 16 1020.8 - - - - - - - - -
28/02:10pm 15.6 W 14 17 1020.8 - - - - - - - - -
28/02:00pm 15.7 W 14 17 1020.7 - - - - - - - - -
28/01:50pm 16.0 W 15 17 1020.6 - - - - - - - - -
28/01:40pm 17.4 W 15 18 1020.5 - - - - - - - - -
28/01:30pm 17.4 W 13 16 1020.5 - - - - - - - - -
28/01:20pm 17.2 W 14 16 1020.6 - - - - - - - - -
28/01:10pm 16.7 WSW 13 16 1020.5 - - - - - - - - -
28/01:00pm 16.0 WSW 13 16 1020.4 - - - - - - - - -
28/12:50pm 16.1 WSW 12 15 1020.6 - - - - - - - - -
28/12:40pm 16.8 WSW 13 15 1020.6 - - - - - - - - -
28/12:30pm 15.4 W 14 16 1020.6 - - - - - - - - -
28/12:20pm 14.5 W 14 17 1020.5 - - - - - - - - -
28/12:10pm 14.4 W 14 16 1020.5 - - - - - - - - -
28/12:00pm 14.4 WSW 14 18 1020.6 - - - - - - - - -
28/11:50am 14.2 W 14 17 1020.7 - - - - - - - - -
28/11:40am 14.0 W 12 15 1020.7 - - - - - - - - -
28/11:30am 13.8 W 13 16 1020.7 - - - - - - - - -
28/11:20am 13.6 W 13 15 1020.8 - - - - - - - - -
28/11:10am 13.6 W 12 15 1021.0 - - - - - - - - -
28/11:00am 13.7 W 12 15 1020.9 - - - - - - - - -
28/10:50am 13.6 W 13 16 1021.1 - - - - - - - - -
28/10:30am 13.6 W 15 18 1021.1 - - - - - - - - -
28/10:20am 13.6 W 15 18 1021.1 - - - - - - - - -
28/10:10am 13.5 W 16 18 1021.2 - - - - - - - - -
28/10:00am 13.6 W 16 18 1021.2 - - - - - - - - -
28/09:50am 13.5 W 17 20 1021.3 - - - - - - - - -
28/09:40am 13.4 W 17 20 1021.3 - - - - - - - - -
28/09:30am 13.5 W 17 20 1021.4 - - - - - - - - -
28/09:20am 13.5 W 18 20 1021.3 - - - - - - - - -
28/09:10am 13.5 W 18 21 1021.3 - - - - - - - - -
28/09:00am 13.5 W 17 20 1021.2 - - - - - - - - -
28/08:50am 13.4 W 17 21 1021.2 - - - - - - - - -
28/08:40am 13.4 W 18 21 1021.1 - - - - - - - - -
28/08:30am 13.5 W 18 21 1021.0 - - - - - - - - -
28/08:20am 13.3 W 19 21 1020.9 - - - - - - - - -
28/08:10am 13.3 W 18 21 1020.6 - - - - - - - - -
28/08:00am 13.3 W 18 21 1020.6 - - - - - - - - -
28/07:50am 13.2 W 19 21 1020.4 - - - - - - - - -
28/07:40am 13.1 W 19 22 1020.3 - - - - - - - - -
28/07:30am 13.0 W 20 23 1020.3 - - - - - - - - -
28/07:20am 12.9 W 19 22 1020.3 - - - - - - - - -
28/07:10am 13.0 W 18 21 1020.1 - - - - - - - - -
28/07:00am 12.8 W 18 20 1020.0 - - - - - - - - -
28/06:50am 12.6 W 17 20 1020.0 - - - - - - - - -
28/06:40am 12.7 W 17 19 1020.0 - - - - - - - - -
28/06:30am 12.8 W 18 21 1019.8 - - - - - - - - -
28/06:20am 12.7 W 18 20 1019.4 - - - - - - - - -
28/06:10am 12.7 W 18 21 1019.3 - - - - - - - - -
28/06:00am 12.7 W 17 21 1019.4 - - - - - - - - -
28/05:50am 12.7 W 17 21 1019.2 - - - - - - - - -
28/05:40am 12.7 W 18 22 1019.1 - - - - - - - - -
28/05:30am 12.8 WSW 17 20 1019.0 - - - - - - - - -
28/05:20am 12.7 WSW 18 22 1018.8 - - - - - - - - -
28/05:10am 12.6 WSW 18 20 1018.7 - - - - - - - - -
28/05:00am 12.7 WSW 18 21 1018.5 - - - - - - - - -
28/04:50am 12.6 WSW 17 22 1018.3 - - - - - - - - -
28/04:40am 12.7 WSW 17 20 1018.1 - - - - - - - - -
28/04:30am 12.7 WSW 18 21 1018.2 - - - - - - - - -
28/04:20am 12.7 W 18 21 1018.2 - - - - - - - - -
28/04:10am 12.7 W 18 21 1018.2 - - - - - - - - -
28/04:00am 12.7 WSW 18 21 1018.2 - - - - - - - - -
28/03:50am 12.7 WSW 18 21 1018.1 - - - - - - - - -
28/03:40am 12.7 WSW 16 20 1018.2 - - - - - - - - -
28/03:30am 12.7 W 17 20 1018.1 - - - - - - - - -
28/03:20am 12.7 W 17 20 1018.0 - - - - - - - - -
28/03:10am 12.8 W 16 19 1018.1 - - - - - - - - -
28/03:00am 12.8 W 16 19 1018.2 - - - - - - - - -
28/02:50am 12.8 W 15 19 1018.2 - - - - - - - - -
28/02:40am 12.8 W 14 18 1018.1 - - - - - - - - -
28/02:30am 12.9 W 15 18 1017.9 - - - - - - - - -
28/02:20am 13.0 WSW 15 18 1018.0 - - - - - - - - -
28/02:10am 12.9 WSW 15 19 1018.1 - - - - - - - - -
28/02:00am 12.9 WSW 16 20 1018.0 - - - - - - - - -
28/01:50am 12.9 WSW 17 21 1018.0 - - - - - - - - -
28/01:40am 12.9 WSW 16 20 1018.1 - - - - - - - - -
28/01:30am 12.9 WSW 15 18 1018.0 - - - - - - - - -
28/01:20am 12.9 WSW 16 19 1017.9 - - - - - - - - -
28/01:10am 12.8 WSW 17 21 1018.0 - - - - - - - - -
28/01:00am 12.8 WSW 16 20 1018.1 - - - - - - - - -
28/12:50am 12.8 WSW 15 19 1018.3 - - - - - - - - -
28/12:40am 12.8 WSW 15 18 1018.2 - - - - - - - - -
28/12:30am 12.8 WSW 15 18 1018.2 - - - - - - - - -
28/12:20am 12.7 WSW 16 18 1018.1 - - - - - - - - -
28/12:10am 12.8 WSW 16 19 1018.2 - - - - - - - - -
28/12:00am 12.8 WSW 15 18 1018.2 - - - - - - - - -
 
Date/Time
EST
Temp
°C
Wind Pressure Rain since
9am
mm
Weather Cloud Vis
km
Sea
Height
m
Swell
Dir  Spd
kts
Gust
kts
hPa Trend Height
m
Period
s
Dir
27/11:50pm 12.8 WSW 14 17 1018.1 - - - - - - - - -
27/11:40pm 12.8 WSW 15 19 1018.0 - - - - - - - - -
27/11:30pm 12.9 WSW 15 17 1018.0 - - - - - - - - -
27/11:20pm 12.9 WSW 16 19 1018.0 - - - - - - - - -
27/11:10pm 12.9 WSW 16 20 1018.0 - - - - - - - - -
27/11:00pm 12.9 WSW 17 22 1017.7 - - - - - - - - -
27/10:50pm 12.9 WSW 16 20 1017.9 - - - - - - - - -
27/10:40pm 13.2 WSW 16 20 1017.8 - - - - - - - - -
27/10:30pm 13.2 WSW 16 19 1017.6 - - - - - - - - -
27/10:20pm 12.7 WSW 17 21 1017.5 - - - - - - - - -
27/10:10pm 12.8 WSW 17 21 1017.5 - - - - - - - - -
27/10:00pm 12.7 WSW 14 19 1017.7 - - - - - - - - -
27/09:50pm 12.6 WSW 14 17 1017.7 - - - - - - - - -
27/09:40pm 12.6 WSW 14 16 1017.4 - - - - - - - - -
27/09:30pm 12.6 WSW 14 17 1017.5 - - - - - - - - -
27/09:20pm 12.5 WSW 14 18 1017.4 - - - - - - - - -
27/09:10pm 12.6 WSW 16 19 1017.4 - - - - - - - - -
27/09:00pm 12.7 WSW 17 20 1017.4 - - - - - - - - -
27/08:50pm 12.7 WSW 17 20 1017.3 - - - - - - - - -
27/08:40pm 12.8 WSW 15 19 1017.3 - - - - - - - - -
27/08:20pm 12.6 WSW 14 17 1017.3 - - - - - - - - -
27/08:10pm 12.6 WSW 15 18 1017.4 - - - - - - - - -
27/08:00pm 12.7 WSW 15 18 1017.2 - - - - - - - - -
27/07:50pm 12.7 WSW 14 17 1017.2 - - - - - - - - -
27/07:40pm 12.7 WSW 15 18 1017.3 - - - - - - - - -
27/07:30pm 12.7 WSW 17 21 1017.1 - - - - - - - - -
27/07:20pm 12.7 WSW 16 19 1017.1 - - - - - - - - -
27/07:10pm 12.8 WSW 16 19 1017.1 - - - - - - - - -
27/07:00pm 12.7 WSW 15 18 1017.0 - - - - - - - - -
27/06:50pm 12.7 WSW 15 17 1016.8 - - - - - - - - -
27/06:40pm 12.8 WSW 15 17 1016.7 - - - - - - - - -
27/06:30pm 12.8 WSW 16 19 1016.3 - - - - - - - - -
27/06:20pm 12.9 WSW 15 18 1016.4 - - - - - - - - -
27/06:10pm 12.9 WSW 14 17 1016.3 - - - - - - - - -
27/06:00pm 13.0 WSW 14 17 1016.0 - - - - - - - - -
27/05:50pm 12.9 WSW 14 17 1015.9 - - - - - - - - -
27/05:40pm 12.9 WSW 16 19 1015.8 - - - - - - - - -
27/05:30pm 12.9 WSW 17 20 1015.6 - - - - - - - - -
27/05:20pm 13.0 WSW 17 20 1015.6 - - - - - - - - -
27/05:10pm 13.0 WSW 16 19 1015.6 - - - - - - - - -
27/05:00pm 13.3 WSW 17 20 1015.5 - - - - - - - - -
27/04:50pm 13.8 WSW 18 21 1015.4 - - - - - - - - -
27/04:40pm 13.0 SW 18 21 1015.3 - - - - - - - - -
27/04:30pm 13.0 SW 19 23 1015.2 - - - - - - - - -
27/04:20pm 13.1 WSW 18 22 1015.0 - - - - - - - - -
27/04:10pm 13.0 WSW 19 22 1014.8 - - - - - - - - -
27/04:00pm 12.7 SW 18 21 1014.7 - - - - - - - - -
27/03:50pm 12.8 SW 19 21 1014.6 - - - - - - - - -
27/03:40pm 13.0 SW 18 21 1014.5 - - - - - - - - -
27/03:30pm 13.0 SW 18 22 1014.4 - - - - - - - - -
27/03:20pm 12.9 SW 17 23 1014.2 - - - - - - - - -
27/03:10pm 13.1 SW 18 21 1014.3 - - - - - - - - -
27/03:00pm 13.1 SW 16 20 1014.4 - - - - - - - - -
27/02:50pm 13.1 WSW 18 21 1014.2 - - - - - - - - -
27/02:40pm 13.2 SW 16 20 1014.2 - - - - - - - - -
27/02:30pm 13.3 WSW 16 19 1014.0 - - - - - - - - -
27/02:20pm 13.4 WSW 15 18 1013.9 - - - - - - - - -
27/02:10pm 13.4 WSW 14 18 1013.8 - - - - - - - - -
27/02:00pm 13.2 SW 14 18 1013.7 - - - - - - - - -
27/01:50pm 13.1 WSW 15 18 1013.6 - - - - - - - - -
27/01:40pm 13.1 SW 15 19 1013.3 - - - - - - - - -
27/01:30pm 13.4 SW 15 18 1013.1 - - - - - - - - -
27/01:20pm 13.4 WSW 14 17 1013.1 - - - - - - - - -
27/01:10pm 13.2 WSW 12 15 1013.3 - - - - - - - - -
27/01:00pm 13.1 WSW 12 15 1013.5 - - - - - - - - -
27/12:50pm 13.0 WSW 12 15 1013.7 - - - - - - - - -
27/12:40pm 13.1 WSW 10 14 1013.8 - - - - - - - - -
27/12:30pm 13.0 WSW 11 15 1014.0 - - - - - - - - -
27/12:20pm 12.9 WSW 9 13 1013.9 - - - - - - - - -
27/12:10pm 12.8 WSW 9 11 1014.0 - - - - - - - - -
27/12:00pm 12.8 WSW 8 12 1014.1 - - - - - - - - -
27/11:50am 12.8 WSW 9 12 1014.1 - - - - - - - - -
27/11:40am 12.8 W 9 12 1014.0 - - - - - - - - -
27/11:30am 12.8 W 9 11 1014.4 - - - - - - - - -
27/11:20am 12.8 W 8 11 1014.5 - - - - - - - - -
27/11:10am 12.8 W 9 12 1014.4 - - - - - - - - -
27/11:00am 12.8 W 9 11 1014.6 - - - - - - - - -
27/10:50am 12.8 W 9 12 1014.7 - - - - - - - - -
27/10:40am 12.8 W 10 12 1014.7 - - - - - - - - -
27/10:30am 12.7 W 10 13 1014.6 - - - - - - - - -
27/10:20am 12.6 W 10 13 1014.6 - - - - - - - - -
27/10:10am 12.5 W 10 13 1014.9 - - - - - - - - -
27/10:00am 12.3 W 11 14 1015.0 - - - - - - - - -
27/09:50am 12.3 W 11 15 1014.9 - - - - - - - - -
27/09:40am 12.2 W 11 15 1014.9 - - - - - - - - -
27/09:30am 12.1 W 12 15 1015.0 - - - - - - - - -
27/09:20am 12.0 W 12 15 1015.0 - - - - - - - - -
27/09:10am 11.9 W 13 16 1015.0 - - - - - - - - -
27/09:00am 11.8 W 13 16 1015.2 - - - - - - - - -
27/08:50am 11.7 W 14 17 1015.2 - - - - - - - - -
27/08:40am 11.7 W 14 17 1015.2 - - - - - - - - -
27/08:30am 11.7 W 16 18 1015.2 - - - - - - - - -
27/08:20am 11.5 W 15 18 1015.1 - - - - - - - - -
27/08:10am 11.5 W 16 18 1015.1 - - - - - - - - -
27/08:00am 11.6 W 16 19 1014.9 - - - - - - - - -
27/07:50am 11.4 W 16 20 1014.5 - - - - - - - - -
27/07:40am 11.5 W 16 19 1014.5 - - - - - - - - -
27/07:30am 11.3 W 17 20 1014.3 - - - - - - - - -
27/07:20am 11.3 W 15 19 1014.1 - - - - - - - - -
27/07:10am 11.2 W 15 19 1014.0 - - - - - - - - -
27/07:00am 11.2 W 15 17 1013.8 - - - - - - - - -
27/06:50am 11.2 W 15 17 1014.1 - - - - - - - - -
27/06:40am 11.1 W 15 18 1014.0 - - - - - - - - -
27/06:30am 11.1 W 15 18 1013.9 - - - - - - - - -
27/06:20am 11.1 W 15 18 1013.8 - - - - - - - - -
27/06:10am 11.1 W 15 18 1013.5 - - - - - - - - -
27/06:00am 11.1 W 15 19 1013.4 - - - - - - - - -
27/05:50am 11.2 W 15 18 1013.2 - - - - - - - - -
27/05:40am 11.2 W 14 18 1013.4 - - - - - - - - -
27/05:30am 11.5 W 14 17 1013.8 - - - - - - - - -
27/05:20am 11.2 W 15 17 1013.9 - - - - - - - - -
27/05:10am 11.1 W 13 17 1014.0 - - - - - - - - -
27/04:50am 12.3 W 14 18 1013.9 - - - - - - - - -
27/04:40am 11.6 W 12 16 1013.3 - - - - - - - - -
27/04:30am 11.2 W 13 16 1012.8 - - - - - - - - -
27/04:20am 11.1 W 13 17 1012.5 - - - - - - - - -
27/04:10am 11.2 WSW 13 16 1012.6 - - - - - - - - -
27/04:00am 11.1 WSW 14 17 1012.5 - - - - - - - - -
27/03:50am 11.2 WSW 13 16 1012.4 - - - - - - - - -
27/03:40am 11.2 WSW 13 16 1012.6 - - - - - - - - -
27/03:30am 11.2 WSW 13 15 1012.7 - - - - - - - - -
27/03:20am 11.4 WSW 12 15 1012.8 - - - - - - - - -
27/03:10am 11.4 WSW 12 14 1012.7 - - - - - - - - -
27/03:00am 11.5 WSW 11 14 1012.7 - - - - - - - - -
27/02:50am 11.8 WSW 11 13 1013.1 - - - - - - - - -
27/02:40am 12.0 WSW 11 14 1013.3 - - - - - - - - -
27/02:30am 11.5 WSW 11 15 1013.0 - - - - - - - - -
27/02:20am 11.5 WSW 11 15 1012.9 - - - - - - - - -
27/02:10am 11.5 WSW 12 16 1013.1 - - - - - - - - -
27/02:00am 11.5 WSW 11 14 1013.0 - - - - - - - - -
27/01:50am 11.6 WSW 12 14 1012.3 - - - - - - - - -
27/01:40am 11.7 WSW 12 15 1012.4 - - - - - - - - -
27/01:30am 11.3 WSW 13 16 1012.6 - - - - - - - - -
27/01:20am 11.4 WSW 12 16 1012.8 - - - - - - - - -
27/01:10am 11.5 WSW 13 16 1012.9 - - - - - - - - -
27/01:00am 11.5 WSW 13 16 1012.9 - - - - - - - - -
27/12:50am 11.5 SW 13 16 1012.9 - - - - - - - - -
27/12:40am 11.7 WSW 12 16 1013.3 - - - - - - - - -
27/12:30am 11.8 WSW 13 15 1013.8 - - - - - - - - -
27/12:20am 11.8 WSW 13 16 1013.9 - - - - - - - - -
27/12:10am 11.7 WSW 12 15 1013.9 - - - - - - - - -
27/12:00am 11.8 WSW 11 13 1013.9 - - - - - - - - -
 
Date/Time
EST
Temp
°C
Wind Pressure Rain since
9am
mm
Weather Cloud Vis
km
Sea
Height
m
Swell
Dir  Spd
kts
Gust
kts
hPa Trend Height
m
Period
s
Dir
26/11:50pm 11.9 WSW 10 14 1014.0 - - - - - - - - -
26/11:40pm 12.0 WSW 9 12 1013.7 - - - - - - - - -
26/11:30pm 12.1 WSW 10 12 1013.5 - - - - - - - - -
26/11:20pm 12.0 WSW 10 13 1013.6 - - - - - - - - -
26/11:10pm 12.3 WSW 10 14 1013.7 - - - - - - - - -
26/11:00pm 12.3 WSW 6 9 1013.9 - - - - - - - - -
26/10:50pm 12.3 WSW 5 7 1014.1 - - - - - - - - -
26/10:40pm 12.1 WSW 5 7 1014.1 - - - - - - - - -
26/10:30pm 11.9 WSW 5 7 1014.1 - - - - - - - - -
26/10:20pm 11.8 WSW 5 7 1014.1 - - - - - - - - -
26/10:10pm 11.9 SW 5 7 1014.1 - - - - - - - - -
26/10:00pm 12.2 SW 5 7 1014.3 - - - - - - - - -
26/09:50pm 13.5 SW 3 5 1014.3 - - - - - - - - -
26/09:40pm 12.1 SW 4 7 1014.4 - - - - - - - - -
26/09:30pm 11.6 SW 3 6 1014.9 - - - - - - - - -
26/09:20pm 11.7 SW 4 6 1014.6 - - - - - - - - -
26/09:10pm 11.6 SW 3 5 1014.6 - - - - - - - - -
26/09:00pm 11.6 SW 2 5 1014.6 - - - - - - - - -

Other Formats:

Comma delimited format used in spreadsheet applications
http://www.bom.gov.au/fwo/IDV60701/IDV60701.55039.axf

JavaScript Object Notation format (JSON) in row-major order
http://www.bom.gov.au/fwo/IDV60701/IDV60701.55039.json